Simultaneous Nadir Overpasses (SNOs) Predictions

Prediction of SNOs between AQUA and GOES-15 Satellite Orbit:

Table of predicted SNOs for the next 14.0 days since TLE Epoch: 2/18/2017
Index Date Time (AQUA) AQUA Lat,Lon GOES-15 Lat,Lon Distance(km) Time Diff (sec)
1 02/19/2017 22:28:59 0.44,-133.41 0.03,-135.35 220.22 80
2 02/20/2017 10:50:15 0.64,-138.57 -0.02,-135.33 367.74 80
3 02/22/2017 10:38:04 0.05,-135.60 -0.02,-135.30 34.97 80
4 02/24/2017 10:25:54 -0.59,-132.65 -0.01,-135.26 297.20 80
5 02/24/2017 22:47:18 -0.55,-137.84 0.01,-135.26 293.17 80
6 02/26/2017 22:35:08 0.10,-134.88 0.01,-135.22 38.21 80
7 02/28/2017 22:22:57 0.70,-131.92 0.01,-135.17 368.82 80
8 03/01/2017 10:44:11 0.43,-137.07 -0.01,-135.14 220.12 80
9 03/03/2017 10:32:02 -0.23,-134.12 -0.01,-135.08 109.77 80
10 03/03/2017 22:53:25 -0.91,-139.30 0.01,-135.08 480.92 80




NCC Satellite Simultaneous Nadir Overpasses (SNOs) Prediction Service
